Location: St Paul
(33.9360°N, 83.4200°W)
Time: 07:51:09
(UTC-04:00)

Cosmos 1766 Rocket - Pass Details

Date: 06 October 2017
Orbit: 606 x 633 km, 82.5° (Epoch: 22 October)

Event Time Altitude Azimuth Distance (km) Brightness Sun altitude
Rises 20:58:34 0° 347° (NNW) 2,892 7.3 -23.1°
Reaches altitude 10° 21:00:49 10° 342° (NNW) 1,988 6.5 -23.6°
Maximum altitude 21:05:05 51° 267° (W) 786 4.4 -24.5°
Drops below altitude 10° 21:09:22 10° 192° (SSW) 1,991 6.2 -25.3°
Enters shadow 21:09:55 - 190° (S) 2,211 6.4 -25.4°
